"Pseudo-MPEC" for P129vec
Created 2025 Apr 28 7:31:07 UT using Find_Orb
Click here for an explanation of pseudo-MPECs
Astrometry:
P129vec* C2025 04 26.52577214 30 46.565+17 24 59.35 ~4QEl 22.24wXNEOCPF51
P129vec C2025 04 26.53856514 30 45.104+17 24 51.59 ~4QEl 22.52wXNEOCPF51
P129vec C2025 04 26.55130614 30 43.692+17 24 43.52 ~4QEl 22.13wXNEOCPF51
P129vec C2025 04 26.56409114 30 42.256+17 24 35.60 ~4QEl 22.39wXNEOCPF51
P129vec KC2025 04 26.61888714 30 36.133+17 24 01.00 ~4QH2 23.21GVNEOCPF52
P129vec KC2025 04 27.37062414 29 14.392+17 16 06.20 ~4R9l 22.24GVNEOCPV06
P129vec KC2025 04 27.37538914 29 13.859+17 16 03.29 ~4R9l 22.32GVNEOCPV06
P129vec KC2025 04 27.38015714 29 13.315+17 16 00.19 ~4R9l 22.28GVNEOCPV06
P129vec KC2025 04 27.38492414 29 12.779+17 15 57.17 ~4R9l 21.78GVNEOCPV06
P129vec KC2025 04 28.26551214 27 36.799+17 06 16.42 ~4S7V VNEOCPV06
P129vec KC2025 04 28.27512014 27 35.723+17 06 10.08 ~4S7V 22.56GVNEOCPV06
P129vec KC2025 04 28.28472814 27 34.679+17 06 03.38 ~4S7V 23.00GVNEOCPV06
P129vec KC2025 04 28.29433714 27 33.566+17 05 56.18 ~4S7V 22.86GVNEOCPV06
Station data:
(F51) Pan-STARRS 1, Haleakala (N20.707234 W156.255910) US/Hawaii.
Observers J. Bulger, T. Lowe, A. Schultz, M. Willman. Measurers K.
Chambers, S. Chastel, T. de Boer, L. Denneau, J. Fairlamb, H. Flewelling,
M. Huber, C.-C. Lin, E. Magnier, Y. Ramanjooloo, R. Wainscoat, R. Weryk.
1.8-m Ritchey-Chrétien + CCD.
(F52) Pan-STARRS 2, Haleakala (N20.707382 W156.255910) US/Hawaii.
Observers J. Bulger, T. Dukes, T. Lowe, A. Schultz, M. Willman. Measurers
K. Chambers, S. Chastel, T. de Boer, L. Denneau, J. Fairlamb, H.
Flewelling, M. Huber, C.-C. Lin, E. Magnier, Y. Ramanjooloo, R. Wainscoat,
R. Weryk. 1.8-m Ritchey-Chrétien + CCD.
(V06) Catalina Sky Survey-Kuiper (N32.416871 W110.732550) US/Arizona.
Observers T. A. Pruyne, B. M. Africano, E. J. Christensen, G. A. Farneth,
D. C. Fuls, A. R. Gibbs, A. D. Grauer, H. Gröller, J. A. Johnson, R. A.
Kowalski, S. M. Larson, G. J. Leonard, D. Rankin, R. L. Seaman, F. C.
Shelly, K. W. Wierzchoś. 1.55-m reflector + CCD.
Orbital elements: P129vec
Perihelion 2025 Dec 1.57519 +/- 16.2 TT = 13:48:16 (JD 2461011.07519)
Epoch 2025 Apr 28.0 TT = JDT 2460793.5 Earth MOID: 0.7050 AutoNEOCP
M 270.70763978 +/- 7 (J2000 ecliptic)
n 0.41039770 +/- 0.0106 Peri. 243.74972 +/- 5.6
a 1.79335430 +/- 0.0309 Node 64.58580 +/- 0.8
e 0.0706082 +/- 0.0151 Incl. 25.60945 +/- 0.9
P 2.402/877.181d H 20.75 G 0.15 U 9.7
q 1.66672870 +/- 0.021 Q 1.91997991 +/- 0.0558
From 13 observations 2025 Apr. 26-28 (42.4 hr); mean residual 0".20
Residuals in arcseconds: 250426 F51 .08+ .14- 250427 V06 .01- .18- 250428 V06 .19- .33+ 250426 F51 .20- .08+ 250427 V06 .06+ .01+ 250428 V06 .44+ .10+ 250426 F51 .09+ .03- 250427 V06 .02- .01+ 250428 V06 .09+ .63- 250426 F51 .08+ .07+ 250427 V06 .00 .09+ 250426 F52 .03- .01+ 250428 V06 .36- .22+ Ephemerides (geocentric): Date (UTC) HH RA Dec delta r elong mag " sig PA ---- -------- ------------ ------------ ------ ------ ----- --- -------- 2025 04 28 08 14 27 29.232 +17 05 33.10 .86234 1.8004 148.7 22.6 .025 71 2025 04 28 09 14 27 24.668 +17 05 04.83 .86230 1.8004 148.7 22.6 .044 38 2025 04 28 10 14 27 20.105 +17 04 36.50 .86226 1.8003 148.7 22.6 .070 27 2025 04 28 11 14 27 15.541 +17 04 08.11 .86223 1.8003 148.7 22.6 .098 21 2025 04 28 12 14 27 10.977 +17 03 39.66 .86219 1.8003 148.7 22.6 .127 17 2025 04 28 13 14 27 06.413 +17 03 11.15 .86216 1.8002 148.7 22.6 .158 15 2025 04 28 14 14 27 01.848 +17 02 42.57 .86212 1.8002 148.7 22.6 .190 14 2025 04 28 15 14 26 57.284 +17 02 13.94 .86209 1.8002 148.7 22.6 .224 12 2025 04 28 16 14 26 52.720 +17 01 45.24 .86205 1.8001 148.7 22.6 .258 11 2025 04 28 17 14 26 48.155 +17 01 16.49 .86202 1.8001 148.7 22.6 .294 10 2025 04 28 18 14 26 43.591 +17 00 47.67 .86199 1.8000 148.7 22.6 .331 10 2025 04 28 19 14 26 39.027 +17 00 18.79 .86195 1.8000 148.7 22.6 .369 9 2025 04 28 20 14 26 34.462 +16 59 49.85 .86192 1.8000 148.7 22.6 .409 8 2025 04 28 21 14 26 29.898 +16 59 20.85 .86189 1.7999 148.7 22.6 .449 8 2025 04 28 22 14 26 25.333 +16 58 51.78 .86186 1.7999 148.7 22.6 .491 7 2025 04 28 23 14 26 20.769 +16 58 22.66 .86183 1.7999 148.7 22.6 .533 7 2025 04 29 00 14 26 16.204 +16 57 53.48 .86180 1.7998 148.7 22.6 .577 7 2025 04 29 01 14 26 11.640 +16 57 24.23 .86177 1.7998 148.7 22.6 .622 6 2025 04 29 02 14 26 07.075 +16 56 54.93 .86174 1.7997 148.7 22.6 .669 6 2025 04 29 03 14 26 02.511 +16 56 25.56 .86171 1.7997 148.7 22.6 .716 5 2025 04 29 04 14 25 57.947 +16 55 56.13 .86168 1.7997 148.7 22.6 .764 5 2025 04 29 05 14 25 53.383 +16 55 26.64 .86165 1.7996 148.6 22.6 .814 5 2025 04 29 06 14 25 48.819 +16 54 57.09 .86162 1.7996 148.6 22.6 .865 5 2025 04 29 07 14 25 44.255 +16 54 27.48 .86159 1.7996 148.6 22.6 .917 4 2025 04 29 08 14 25 39.691 +16 53 57.81 .86156 1.7995 148.6 22.6 .970 4 2025 04 29 09 14 25 35.127 +16 53 28.08 .86153 1.7995 148.6 22.6 1.02 4 2025 04 29 10 14 25 30.564 +16 52 58.29 .86151 1.7994 148.6 22.6 1.08 4 2025 04 29 11 14 25 26.000 +16 52 28.44 .86148 1.7994 148.6 22.6 1.14 3 2025 04 29 12 14 25 21.437 +16 51 58.52 .86145 1.7994 148.6 22.6 1.19 3 2025 04 29 13 14 25 16.874 +16 51 28.55 .86143 1.7993 148.6 22.6 1.25 3 2025 04 29 14 14 25 12.311 +16 50 58.51 .86140 1.7993 148.6 22.6 1.31 3 2025 04 29 15 14 25 07.749 +16 50 28.42 .86138 1.7992 148.6 22.6 1.37 2 2025 04 29 16 14 25 03.186 +16 49 58.26 .86135 1.7992 148.6 22.6 1.44 2 2025 04 29 17 14 24 58.624 +16 49 28.04 .86133 1.7992 148.6 22.6 1.50 2 2025 04 29 18 14 24 54.062 +16 48 57.76 .86130 1.7991 148.6 22.6 1.57 2 2025 04 29 19 14 24 49.501 +16 48 27.42 .86128 1.7991 148.6 22.6 1.63 2 2025 04 29 20 14 24 44.939 +16 47 57.03 .86126 1.7991 148.6 22.6 1.70 1 2025 04 29 21 14 24 40.378 +16 47 26.57 .86124 1.7990 148.6 22.6 1.77 1 2025 04 29 22 14 24 35.817 +16 46 56.05 .86121 1.7990 148.6 22.6 1.84 1 2025 04 29 23 14 24 31.257 +16 46 25.47 .86119 1.7989 148.6 22.6 1.91 1 2025 04 30 00 14 24 26.697 +16 45 54.82 .86117 1.7989 148.5 22.6 1.98 1 2025 04 30 01 14 24 22.137 +16 45 24.12 .86115 1.7989 148.5 22.6 2.05 1 2025 04 30 02 14 24 17.577 +16 44 53.36 .86113 1.7988 148.5 22.6 2.12 0 2025 04 30 03 14 24 13.018 +16 44 22.54 .86111 1.7988 148.5 22.6 2.20 0 2025 04 30 04 14 24 08.459 +16 43 51.66 .86109 1.7988 148.5 22.6 2.28 0 2025 04 30 05 14 24 03.901 +16 43 20.71 .86107 1.7987 148.5 22.6 2.35 0 2025 04 30 06 14 23 59.343 +16 42 49.71 .86105 1.7987 148.5 22.6 2.43 0 2025 04 30 07 14 23 54.785 +16 42 18.65 .86103 1.7986 148.5 22.6 2.51 0